Starlink 32100

operational
NORAD ID: 59686 Int'l Des: 2024-086 Owner: SPXS Country: US Constellation: starlink
LEOCIRCULAR

Über Starlink 32100

Beschreibung wird geladen...

Live-Position

3D-Globus wird geladen...

Nächste Überflüge

Höhenverlauf

Altitude vs Time

uPlot chart will show altitude changes over time

Zweizeiliger Elementsatz

1 59686U 24086E 26034.59065866 .00000565 00000-0 30044-4 0 9995
2 59686 43.0007 234.3633 0001051 274.9248 85.1484 15.27575973 99107
Epoch: 3. Feb. 2026 • Age: 18 hours

Aktueller Status

Höhe 484.1 km
Geschwindigkeit 7.62 km/s
Subsatellitenpunkt -7.34°S, 159.45°E
Startdatum 8. Mai 2024
Alter 1.7 years
Typ internet

Technische Details

Klassifizierung Payload
Masse 730.00 kg
Trockenmasse 700.00 kg
Gesamtmasse 730.00 kg
Länge 0.30 m
Durchmesser 4.10 m
Spannweite 29.00 m
Form Box + pan
Hersteller SPXS
Bus-Typ Starlink V2M
Phasenstatus In Orbit
Besitzer/Staat SPXS/US

Große Konstellationen

Loading constellations...